TIANMU-1 19

Last updated on Sun Jul 06 2025 00:02:21 GMT+0000 (Coordinated Universal Time)

1 58660U 23208A 25186.60413016 .00006166 00000+0 25406-3 0 9991 2 58660 97.4294 298.5518 0007321 101.7367 258.4692 15.24432268 84407
UTC large
Height (km)
Speed (km/s)
/
Latitude / Longitude
Inclination (degrees)
Orbital Period (minutes)
Azimuth
Elevation
Range (km)
Doppler Factor

Next 0 passes for location: London (51.5072 / 0.1276)

Sorry there are no passes over London.